EW9551 Weather Reports


Display with metric or nautical units.
time (UTC)temp
F
wind
direction
speed
MPH
gust
MPH
rain 1hr
in
rain 24hr
in
rain mn
in
humidity
%
barometer
mb
20260508063803 52 343 0.0 0.0 0.00 0.00 0.00 95 974.1
20260508062203 49 0 0.0 0.0 0.00 0.00 0.00 95 973.9
20260508055138 46 344 0.0 0.0 0.00 0.00 0.00 94 973.6
20260508050756 45 0 0.0 0.0 0.00 0.00 0.00 93 973.5
20260508043756 45 344 0.0 0.0 0.00 0.00 0.00 93 973.4
20260508040749 45 344 0.0 0.0 0.00 0.00 0.00 92 973.3
20260508033747 46 344 0.0 0.0 0.00 0.00 0.00 92 973.5
20260508030753 46 342 0.0 0.0 0.00 0.00 0.00 92 973.6
20260508023748 47 344 0.0 0.0 0.00 0.00 0.00 92 973.5
20260508020745 47 344 0.0 0.0 0.00 0.00 0.00 91 973.4
20260508013744 48 343 0.0 0.0 0.00 0.00 0.00 91 973.3
20260508010743 48 343 0.0 0.0 0.00 0.00 0.00 90 973.4
20260508003741 49 343 0.0 0.0 0.00 0.00 0.00 90 973.4
20260508000737 49 343 0.0 0.0 0.00 0.00 0.00 89 973.4
20260507233737 49 343 0.0 0.0 0.00 0.00 0.00 88 973.5
20260507230735 50 0 0.0 0.0 0.00 0.00 0.00 88 973.4
20260507223734 51 0 0.0 0.0 0.00 0.00 0.00 87 973.4
20260507220734 51 344 0.0 0.0 0.00 0.00 0.00 86 973.5
20260507215135 52 344 0.0 0.0 0.00 0.00 0.00 84 973.2
20260507210731 53 344 0.0 0.0 0.00 0.00 0.00 83 973.2
20260507210457 54 343 0.0 0.0 0.00 0.00 0.00 80 973.2
20260507200731 56 346 0.0 0.0 0.00 0.00 0.00 76 972.9
20260507193730 58 345 0.0 0.0 0.00 0.00 0.00 74 972.7
20260507190730 60 344 0.0 0.0 0.00 0.00 0.00 71 972.5
20260507183729 62 340 0.0 0.0 0.00 0.00 0.00 69 972.2
20260507182126 63 346 0.0 0.0 0.00 0.00 0.00 67 972.1
20260507173730 64 13 0.0 0.0 0.00 0.00 0.00 64 971.9
20260507170730 64 32 0.0 1.0 0.00 0.00 0.00 64 971.9
20260507163732 65 350 0.0 3.0 0.00 0.00 0.00 64 971.9
20260507160728 65 355 0.0 0.0 0.00 0.00 0.00 63 972.0
20260507153726 66 350 0.0 2.0 0.00 0.00 0.00 63 972.1
20260507150723 67 351 0.0 0.0 0.00 0.00 0.00 63 972.3
20260507145117 67 0 0.0 2.0 0.00 0.00 0.00 62 972.5
20260507140725 68 0 0.0 0.0 0.00 0.00 0.00 59 972.5
20260507133720 69 0 0.0 0.0 0.00 0.00 0.00 60 972.7
20260507130718 69 0 0.0 4.0 0.00 0.00 0.00 58 973.1
20260507123719 69 29 0.0 0.0 0.00 0.00 0.00 65 973.3
20260507113713 68 292 0.0 0.0 0.00 0.00 0.00 66 973.4
20260507110710 68 351 0.0 1.0 0.00 0.00 0.00 65 973.6
20260507103706 64 333 0.0 0.0 0.00 0.00 0.00 69 973.8
20260507100706 65 355 0.0 0.0 0.00 0.02 0.00 65 973.8
20260507093704 64 46 0.0 0.0 0.00 0.02 0.00 72 974.0
20260507090703 64 92 0.0 0.0 0.00 0.02 0.00 72 973.9
20260507083705 62 50 0.0 0.0 0.00 0.02 0.00 75 973.7
20260507080704 60 10 0.0 0.0 0.00 0.05 0.00 78 973.8
20260507073705 59 75 0.0 0.0 0.00 0.09 0.00 79 973.7
20260507072050 57 286 0.0 0.0 0.00 0.14 0.00 87 973.6